Location: Middelsbur
(53.6609°N, 7.5020°E)
Time: 23:15:03
(UTC+00:00)

NOSS 3-3 (A) - Pass Details

Date: 06 July 2020
Orbit: 825 x 1387 km, 63.4° (Epoch: 01 August)

Event Time Altitude Azimuth Distance (km) Brightness Sun altitude
Rises 21:32:40 0° 215° (SW) 3,442 6.6 -9.3°
Reaches altitude 10° 21:35:02 10° 212° (SSW) 2,555 5.9 -9.5°
Maximum altitude 21:40:54 69° 131° (SE) 1,034 4.0 -9.9°
Drops below altitude 10° 21:47:39 10° 50° (NE) 2,916 6.7 -10.3°
Sets 21:50:30 0° 48° (NE) 3,964 7.4 -10.5°
